Location: Lecco
(45.8566°N, 9.3977°E)
Time: 10:43:57
(UTC+02:00)

S-56A Canister/Altair - Pass Details

Date: 22 July 2019
Orbit: 633 x 2499 km, 38.9° (Epoch: 23 August)

Event Time Altitude Azimuth Distance (km) Brightness Sun altitude
Rises 05:12:48 0° 179° (S) 4,586 11.1 -6.7°
Reaches altitude 10° 05:17:21 10° 158° (SSE) 3,977 11.0 -6.0°
Maximum altitude 05:22:59 16° 126° (SE) 3,929 11.4 -5.3°
Drops below altitude 10° 05:29:30 10° 96° (E) 4,758 12.4 -4.3°
Sets 05:35:51 0° 78° (ENE) 6,024 13.6 -3.4°
